Change the Weather History Date:

Tuesday, August 27, 2013

  Actual Average Record
Temperature  
Mean Temperature 78 °F -  
Max Temperature 91 °F 92 °F 105 °F (1954)
Min Temperature 64 °F 66 °F 49 °F (1962)
Cooling Degree Days 12    
Growing Degree Days 28 (Base 50)    
Moisture  
Dew Point 68 °F    
Average Humidity 80    
Maximum Humidity 100    
Minimum Humidity 43    
Precipitation  
Precipitation 0.00 in - - ()
Sea Level Pressure  
Sea Level Pressure 30.06 in    
Wind  
Wind Speed 2 mph (SSW)    
Max Wind Speed 12 mph    
Max Gust Speed 18 mph    
Visibility 8 miles    
Events      
Averages and records for this station are not official NWS values.
T = Trace of Precipitation, MM = Missing Value Source: NWS Daily Summary

Daily Weather History Graph

Daily Weather History Graph

Search for Another Location

Airport or City:

Trip Planner

Search our weather history database for the weather conditions in past years. The results will help you decide how hot, cold, wet, or windy it might be!

Date:

Astronomy

Aug. 27, 2013 Rise Set
Actual Time 6:51 AM CDT 7:59 PM CDT
Civil Twilight 6:24 AM CDT 8:25 PM CDT
Nautical Twilight 5:52 AM CDT 8:57 PM CDT
Astronomical Twilight 5:19 AM CDT 9:30 PM CDT
Moon No Moon Rise 1:38 PM CDT (8/27)
Length of Visible Light 14h 01m
Length of Day
13h 07m
Waning Gibbous, 57% of the Moon is Illuminated
Aug 27
Waning Gibbous
Aug 28
Last Quarter
Sep 5
New
Sep 12
First Quarter
Sep 19
Full

Hourly Weather History & Observations

Time (CDT) Temp. Heat Index Dew Point Humidity Pressure Visibility Wind Dir Wind Speed Gust Speed Precip Events Conditions
12:53 AM 69.1 °F - 68.0 °F 96% 30.07 in 5.0 mi Calm Calm - N/A   Clear
1:53 AM 68.0 °F - 66.9 °F 96% 30.06 in 5.0 mi Calm Calm - N/A   Clear
2:53 AM 66.9 °F - 66.0 °F 97% 30.06 in 3.0 mi Calm Calm - N/A   Clear
3:53 AM 66.0 °F - 64.9 °F 96% 30.06 in 6.0 mi Calm Calm - N/A   Clear
4:10 AM 64.4 °F - 64.4 °F 100% 30.09 in 2.5 mi Calm Calm - N/A   Clear
4:19 AM 64.4 °F - 64.4 °F 100% 30.09 in 5.0 mi Calm Calm - N/A   Clear
4:53 AM 64.9 °F - 64.0 °F 97% 30.06 in 6.0 mi Calm Calm - N/A   Clear
5:53 AM 64.9 °F - 64.0 °F 97% 30.06 in 6.0 mi Calm Calm - N/A   Clear
6:53 AM 64.0 °F - 64.0 °F 100% 30.08 in 4.0 mi Calm Calm - N/A   Clear
7:12 AM 64.4 °F - 64.4 °F 100% 30.11 in 2.0 mi Calm Calm - N/A   Clear
7:22 AM 66.2 °F - 64.4 °F 94% 30.11 in 5.0 mi Calm Calm - N/A   Clear
7:53 AM 68.0 °F - 66.9 °F 96% 30.08 in 6.0 mi Calm Calm - N/A   Clear
8:53 AM 75.0 °F - 69.1 °F 82% 30.09 in 10.0 mi Calm Calm - N/A   Clear
9:53 AM 82.0 °F 85.9 °F 70.0 °F 67% 30.10 in 10.0 mi SSW 4.6 mph - N/A   Clear
10:53 AM 86.0 °F 91.5 °F 71.1 °F 61% 30.10 in 10.0 mi SSW 10.4 mph - N/A   Clear
11:53 AM 88.0 °F 92.9 °F 70.0 °F 55% 30.10 in 10.0 mi SSW 11.5 mph 18.4 mph N/A   Clear
12:53 PM 90.0 °F 95.4 °F 70.0 °F 52% 30.08 in 10.0 mi SW 11.5 mph - N/A   Clear
1:53 PM 91.0 °F 95.2 °F 68.0 °F 47% 30.05 in 10.0 mi SSW 11.5 mph - N/A   Clear
2:53 PM 91.9 °F 95.9 °F 68.0 °F 45% 30.03 in 10.0 mi SSW 6.9 mph - N/A   Partly Cloudy
3:53 PM 91.0 °F 93.8 °F 66.0 °F 44% 30.01 in 10.0 mi SSW 8.1 mph - N/A   Partly Cloudy
4:53 PM 90.0 °F 91.7 °F 64.9 °F 43% 30.01 in 10.0 mi South 6.9 mph - N/A   Partly Cloudy
5:53 PM 89.1 °F 92.9 °F 68.0 °F 50% 30.00 in 10.0 mi SSW 4.6 mph - N/A   Partly Cloudy
6:53 PM 87.1 °F 92.0 °F 70.0 °F 57% 29.99 in 10.0 mi South 3.5 mph - N/A   Clear
7:53 PM 79.0 °F - 72.0 °F 79% 30.00 in 10.0 mi Calm Calm - N/A   Clear
8:53 PM 75.0 °F - 72.0 °F 90% 30.00 in 10.0 mi Calm Calm - N/A   Clear
9:53 PM 73.0 °F - 71.1 °F 93% 30.01 in 10.0 mi Calm Calm - N/A   Clear
10:53 PM 72.0 °F - 71.1 °F 97% 30.02 in 10.0 mi Calm Calm - N/A   Clear
11:53 PM 71.1 °F - 70.0 °F 96% 30.02 in 9.0 mi Calm Calm - N/A   Clear